Location: Blue Mountain Vista Observatory
(40.6992°N, 75.9422°W)
Time: 19:32:45
(UTC-04:00)

IDEFIX/ARIANE 42P - Visible Passes

Search period start: 29 August 2015 00:00
Search period end: 08 September 2015 00:00
Orbit: 785 x 803 km, 98.3° (Epoch: 29 August)

Date Brightness Start Highest point End Pass type
(mag) Time Alt. Az. Time Alt. Az. Time Alt. Az.
29 Aug 3.1 20:03:49 10° S 20:08:57 65° W 20:14:07 10° NNW visible
30 Aug 5.4 21:18:15 10° WSW 21:20:55 14° W 21:23:19 10° WNW visible
31 Aug 4.8 20:47:59 10° SSW 20:52:17 25° W 20:56:28 10° NW visible
01 Sep 3.7 20:18:49 10° S 20:23:47 46° W 20:28:46 10° NNW visible
03 Sep 5.2 21:03:38 10° SW 21:07:14 18° W 21:10:40 10° NW visible
04 Sep 4.3 20:34:00 10° SSW 20:38:40 33° W 20:43:19 10° NNW visible
05 Sep 3.2 20:05:08 10° S 20:10:14 62° W 20:15:24 10° NNW visible
06 Sep 5.5 21:19:49 10° WSW 21:22:15 13° W 21:24:23 10° WNW visible
07 Sep 4.9 20:49:23 10° SSW 20:53:35 24° W 20:57:42 10° NW visible
